[Iaude] MPEC C106: 2024 CV1 [a=1.25,e=0.20,i=1.7,H=28.9]

mpec at cfa.harvard.edu mpec at cfa.harvard.edu
Sat Feb 10 04:48:09 EST 2024


M.P.E.C. 2024-C106                            Issued 2024 February 10, 09:46 UT

     The Minor Planet Electronic Circulars contain information on unusual
         minor planets, routine data on comets and natural satellites,
         and occasional editorial announcements.  They are published
    on behalf of Division F of the International Astronomical Union by the
          Minor Planet Center, Smithsonian Astrophysical Observatory,
                          Cambridge, MA 02138, U.S.A.
			  
             Prepared using the Tamkin Foundation Computer Network

                              MPC at CFA.HARVARD.EDU
            URL https://www.minorplanetcenter.net/    ISSN 1523-6714

                                    2024 CV1                                    


Observations:
     K24C01V  C2024 02 07.34860409 48 53.454+29 25 31.72         20.59GVEC106F52
     K24C01V  C2024 02 07.36040809 49 11.151+29 26 25.77         20.52GVEC106F52
     K24C01V  C2024 02 07.37224809 49 28.954+29 27 18.91         20.87GVEC106F52
     K24C01V  C2024 02 07.38396609 49 46.407+29 28 09.95         20.59GVEC106F52
     K24C01V* C2024 02 09.40592210 53 59.389+30 36 34.71         20.77wXEC106F52
     K24C01V  C2024 02 09.41885110 54 22.791+30 36 51.35         20.54wXEC106F52
     K24C01V  C2024 02 09.43177310 54 46.066+30 37 05.54         20.72wXEC106F52
     K24C01V  C2024 02 09.44473910 55 09.271+30 37 17.90         20.42GVEC106F52
     K24C01V KB2024 02 10.36099 11 26 48.79 +30 21 54.1          20.1 GVEC106734
     K24C01V KB2024 02 10.36853 11 27 02.75 +30 21 39.4          20.4 GVEC106734
     K24C01V KB2024 02 10.39076 11 27 44.32 +30 20 54.1          20.0 GVEC106734

Observer details:
734 Farpoint Observatory, Eskridge.  Observers D. Cromer, G. Hug, D. Goodin,
    R. Valentine.  Measurer D. Cromer.  0.69-m f/3.54 reflector + CMO.
F52 Pan-STARRS 2, Haleakala.  Observers J. Herman, T. Lowe, P. Minguez, A.
    Schultz, I. Smith.  Measurers K. Chambers, T. de Boer, J. Fairlamb, H.
    Gao, M. Huber, C.-C. Lin, E. Magnier, Y. Ramanjooloo, R. Wainscoat, R.
    Weryk.  1.8-m Ritchey-Chretien + CCD.

Orbital elements:
2024 CV1                                                 Earth MOID = 0.0108 AU
Epoch 2023 Sept. 13.0 TT = JDT 2460200.5                MPC                     
M 246.91811              (2000.0)            P               Q                  
n   0.70506204     Peri.   21.41176     -0.88169147     -0.47128146             
a   1.2502144      Node   130.45030     +0.42845111     -0.81983558             
e   0.2036160      Incl.    1.70715     +0.19761020     -0.32521288             
P   1.40           H   28.96          G   0.15           U   7                  
Residuals in seconds of arc
240207 F52  0.9-  0.2-    240209 F52  0.4+  0.1-    240210 734  1.1+  0.0
240207 F52 (1.6-  0.2-)   240209 F52  0.2+  0.1+    240210 734  0.5-  0.4-
240207 F52  0.1-  0.1+    240209 F52  0.2+  0.1-    240210 734  0.5-  0.7+
240207 F52  0.5+  0.2+    240209 F52  0.2-  0.1-

Ephemeris:
2024 CV1                 a,e,i = 1.25, 0.20, 2                   q = 0.9957
Date    TT    R. A. (2000) Decl.     Delta      r    Elong.  Phase     V
2024 01 11    06 34 44.7 +12 35 01   0.06073 1.0421   164.6    14.5    23.8
...
2024 01 26    07 07 15.7 +17 04 40   0.03192 1.0146   160.2    19.2    22.5
...
2024 02 03    08 16 28.1 +24 06 14   0.01941 1.0044   166.9    12.9    21.2
...
2024 02 09    10 39 45.9 +30 31 09   0.01366 0.9991   157.3    22.4    20.7
2024 02 10    11 14 07.2 +30 31 59   0.01333 0.9984   151.6    28.1    20.8
2024 02 11    11 49 17.1 +29 56 57   0.01323 0.9978   145.4    34.1    21.0
...
2024 02 17    14 30 58.9 +19 09 04   0.01697 0.9951   114.5    64.6    22.4
...
2024 02 25    15 53 29.5 +08 30 34   0.02758 0.9949   100.2    78.3    23.9
...
2024 03 11    16 38 45.6 +01 24 30   0.04960 1.0047   101.7    75.5    25.1

A. U. Tomatic                (C) Copyright 2024 MPC           M.P.E.C. 2024-C106





More information about the Iaude mailing list